Theta_e
311 311 312 312 312 312 312 312 311 311 311 311 311 311 310 309 309 308 308 309 310 309 310 310 310 311 310 311 311 311 311 312 313 312 314 317 316 315 314 314 314 313 313 313 313 315 315 315 315 315 316 316 317 318 318 317 317 321 334 338 323 317 317 316 319 318 319 320 315 314 316 316 317 316 315 315 315 315 314 314 314 314 314 315 315 315 314 313
312 312 312 312 312 312 311 311 311 311 311 311 311 310 309 308 308 308 308 309 309 310 310 310 310 310 310 311 311 311 312 312 313 315 316 317 315 314 314 313 313 313 313 313 314 315 315 315 315 315 316 317 316 317 318 318 317 322 335 333 321 321 318 314 317 315 315 317 315 315 316 316 317 316 315 316 315 314 315 314 313 314 314 314 314 313 313 313
311 311 311 311 311 311 311 311 311 311 311 310 309 309 308 308 308 308 309 309 309 310 310 310 310 310 310 311 311 312 312 314 316 317 316 314 314 314 314 314 314 314 315 316 316 315 316 315 315 315 315 316 316 316 317 318 317 317 327 327 319 320 316 313 316 315 316 316 314 315 315 316 317 316 316 315 314 314 316 315 313 314 314 313 313 313 313 312
310 311 311 311 311 311 311 311 311 310 310 309 308 308 308 308 308 308 309 309 310 310 310 310 310 310 310 311 311 312 313 317 317 315 314 313 314 314 314 314 314 315 316 316 317 315 315 315 315 315 315 316 315 316 316 317 316 315 323 325 316 314 316 316 316 316 317 316 316 315 315 316 316 317 315 314 315 315 315 315 315 315 315 314 314 313 312 312
309 310 310 310 310 310 310 310 310 309 309 308 308 308 308 308 308 309 309 309 310 310 310 310 310 310 310 311 312 312 315 318 316 313 314 313 314 314 314 314 313 314 315 317 317 316 316 316 316 316 316 316 316 317 317 315 316 315 317 318 314 313 316 317 315 316 316 316 317 315 315 315 315 316 315 315 317 317 315 315 316 316 315 315 314 313 312 312
308 308 308 308 308 309 309 309 309 308 308 307 307 308 308 308 308 309 309 309 309 310 310 310 310 310 310 311 312 313 316 318 316 314 314 314 314 314 314 313 313 314 317 318 317 317 317 317 316 317 316 315 315 316 317 315 316 319 316 314 315 314 316 317 315 316 316 316 316 315 316 315 315 315 315 315 315 316 316 315 316 315 315 315 315 313 312 312
307 307 307 307 307 307 307 307 307 307 307 307 308 308 308 308 309 309 309 309 309 309 310 310 310 310 310 310 312 315 315 315 315 315 314 314 313 313 313 313 314 316 318 318 318 318 317 317 317 316 316 315 315 315 316 315 315 319 318 315 316 316 316 317 316 316 316 315 315 315 315 315 315 315 315 315 315 316 315 315 316 316 315 315 314 314 313 312
308 308 308 308 307 307 307 307 307 307 308 308 308 308 309 309 308 309 309 309 309 309 309 309 310 310 310 311 314 316 315 315 316 316 315 314 314 314 314 314 316 318 319 319 319 318 318 317 317 316 316 315 315 315 315 316 316 318 319 315 316 316 317 317 317 317 317 316 315 315 315 315 316 315 314 315 315 316 315 315 315 315 315 314 313 313 313 312
309 308 308 308 308 308 308 308 308 308 308 308 308 308 308 308 309 309 309 309 309 309 309 309 310 310 311 312 315 316 318 319 317 317 316 316 316 316 316 317 318 318 318 319 319 318 318 317 316 317 316 315 316 315 314 317 317 316 316 315 316 316 316 317 317 317 317 316 315 315 315 315 315 315 315 315 315 315 315 314 314 313 313 313 312 312 312 312
310 310 309 309 309 308 308 308 308 308 308 308 308 308 308 308 309 309 309 309 309 309 309 309 310 310 313 315 316 316 319 321 318 317 317 318 318 318 318 318 318 319 318 319 318 318 318 317 317 317 317 316 315 314 314 317 317 316 315 315 315 316 315 316 316 317 316 316 316 316 316 315 314 315 316 315 314 315 315 314 313 312 312 312 312 311 312 311
311 311 311 310 310 310 309 309 309 308 308 308 308 308 308 308 308 308 309 309 309 309 309 309 310 311 314 316 317 317 319 320 319 318 319 319 319 318 319 318 318 318 318 318 318 318 318 317 317 318 318 316 315 315 314 315 315 315 315 316 316 314 315 315 314 315 316 315 315 315 315 314 313 314 316 314 314 314 314 313 312 312 312 312 312 311 311 311
311 311 311 311 311 311 310 310 310 309 309 309 309 308 308 308 308 308 308 308 309 309 309 310 310 312 314 315 316 317 318 319 320 320 320 319 318 319 319 318 318 317 317 318 317 318 317 318 318 318 318 316 315 315 315 315 315 315 315 317 320 319 318 316 314 314 315 315 315 315 315 317 315 314 315 314 314 314 313 313 312 312 312 311 311 311 311 312
310 310 310 310 310 310 311 311 311 310 310 309 309 309 308 308 308 308 308 308 308 309 309 310 312 314 315 315 315 315 316 318 319 320 320 319 319 319 318 318 317 317 317 317 318 318 317 319 318 317 317 315 316 315 315 314 314 317 314 315 321 323 322 317 313 314 314 315 315 315 318 326 323 314 313 314 313 313 312 312 312 312 312 311 311 311 311 312
309 309 309 309 310 310 310 310 311 311 310 310 309 309 308 308 308 308 308 308 308 309 310 312 314 315 315 315 315 316 317 318 319 319 320 319 319 319 318 317 317 317 317 317 317 317 317 318 317 317 316 316 316 314 318 317 315 318 314 317 322 320 327 323 312 313 315 314 314 316 319 325 324 315 312 314 313 313 312 311 312 312 312 311 311 311 311 312
309 309 308 309 309 309 309 309 310 310 311 310 310 309 309 308 308 308 308 308 309 310 312 315 315 316 316 315 315 316 317 317 318 319 320 319 319 318 317 317 317 317 317 317 317 317 317 317 316 317 315 316 316 316 324 324 323 323 315 324 327 317 328 328 311 312 316 314 312 316 319 320 319 314 312 313 313 313 312 312 312 311 312 311 311 311 311 312
309 309 308 308 308 308 309 309 309 309 310 310 310 309 309 308 308 308 308 308 310 313 314 315 315 315 316 316 315 316 317 317 318 318 319 319 318 317 317 317 317 317 317 316 317 316 317 317 315 316 314 315 319 326 333 326 327 331 320 324 330 320 323 325 315 312 314 314 312 314 320 321 318 312 312 313 312 312 311 311 311 311 312 311 311 312 311 312
309 309 308 308 308 308 308 308 308 309 309 309 309 309 308 308 307 307 309 310 313 315 315 316 317 316 316 316 316 317 316 317 318 318 318 318 317 317 317 317 317 317 317 316 317 316 316 316 315 317 316 314 318 327 331 323 325 332 321 320 328 323 320 323 322 315 311 314 314 313 315 319 318 311 310 312 311 312 311 311 312 311 312 312 311 312 312 312
308 308 308 308 308 308 308 308 308 308 308 309 308 308 308 308 308 310 311 313 314 315 315 317 318 316 316 316 315 316 317 317 318 318 318 318 317 317 317 317 317 316 316 316 315 315 315 315 316 320 319 315 317 322 324 322 327 332 324 322 325 322 319 322 323 316 313 315 315 315 314 315 315 311 310 312 311 311 311 311 311 311 312 312 311 311 312 312
308 308 308 308 308 308 308 308 308 308 307 307 308 308 308 309 310 312 313 314 314 315 315 316 316 315 316 316 315 316 317 317 318 318 318 318 317 317 317 316 316 316 315 316 316 314 315 316 317 321 321 318 318 319 321 323 328 333 330 328 328 325 322 323 323 318 314 315 316 315 315 314 314 313 311 311 311 311 311 311 311 311 311 311 311 311 312 312
307 308 307 307 308 308 308 308 308 308 307 307 308 309 310 311 313 314 314 314 314 314 314 315 315 314 317 317 315 316 318 318 318 318 317 317 317 316 316 315 315 315 315 318 319 314 315 319 321 321 321 319 318 318 319 319 323 326 325 327 327 326 324 322 323 318 312 315 318 316 315 314 315 315 311 310 311 309 310 310 310 311 311 311 312 312 312 311
307 307 308 308 308 308 308 308 308 307 306 307 308 310 311 312 313 315 314 314 313 311 313 315 315 315 316 318 317 317 318 318 318 318 317 317 317 316 316 315 316 318 316 316 317 314 315 320 321 322 319 317 318 318 317 317 318 319 320 322 322 323 322 320 321 319 312 315 321 319 316 315 314 314 311 309 310 309 309 310 310 311 311 312 312 311 312 311
310 307 307 307 308 308 308 308 308 307 306 307 309 310 311 312 313 315 316 316 315 313 313 314 315 316 315 317 318 318 318 318 318 318 317 317 317 316 316 316 319 321 317 315 317 317 318 320 319 318 315 314 318 317 316 317 317 318 319 319 320 322 320 321 323 319 314 315 322 323 319 316 315 315 312 309 309 311 311 311 312 312 311 311 312 311 311 311
315 309 308 308 307 308 308 308 308 308 306 307 308 309 311 313 314 314 316 318 318 315 314 315 314 314 315 316 318 318 318 318 318 318 317 316 316 316 315 316 319 320 318 318 321 322 322 324 319 313 313 316 319 318 317 317 318 319 319 318 321 322 320 324 324 319 316 317 319 322 319 316 316 317 315 312 311 312 312 312 312 312 311 311 312 312 312 311
318 312 309 308 307 308 308 309 311 310 307 308 308 308 312 315 315 316 316 317 318 317 315 316 316 315 316 316 317 318 318 318 318 318 317 317 316 316 315 316 318 319 319 318 320 321 323 324 317 312 316 319 319 319 320 320 320 321 321 319 320 321 320 323 323 320 323 323 319 318 319 319 320 318 318 316 313 312 311 312 312 311 311 311 311 312 312 312
320 314 310 309 309 308 308 311 313 311 307 308 308 309 314 317 318 318 316 318 320 319 316 316 317 317 316 316 316 318 318 318 318 318 317 317 317 317 315 315 318 321 319 317 318 319 320 318 316 317 318 318 319 320 322 323 322 322 322 321 320 321 321 322 322 322 326 331 323 318 323 328 326 320 319 319 316 315 312 310 311 311 310 310 310 311 311 311
321 317 312 310 309 308 311 313 313 309 308 308 307 311 316 319 319 317 318 323 322 319 318 316 317 318 317 317 317 317 318 318 317 318 318 317 317 317 317 316 317 319 318 317 318 318 319 316 318 324 321 320 321 321 323 323 320 322 326 324 320 320 322 322 323 322 326 330 322 318 325 328 323 322 324 323 321 321 317 310 309 311 310 310 310 311 311 311
323 320 314 311 309 309 312 314 311 309 309 309 308 313 317 318 318 316 316 321 319 317 320 318 316 317 317 318 317 317 320 320 318 318 317 318 317 317 319 318 317 317 316 317 320 320 320 319 319 323 324 323 322 321 324 321 320 325 326 325 323 321 322 323 322 323 325 326 321 320 324 325 322 322 325 327 326 326 322 316 311 309 310 311 310 310 311 311
322 321 317 313 310 309 312 313 312 310 310 310 311 314 318 318 317 316 316 318 317 317 321 319 315 316 317 317 317 317 318 318 319 319 317 317 317 316 319 318 318 318 316 318 323 320 319 323 322 322 323 323 323 324 324 320 321 325 322 323 325 323 324 325 322 322 323 323 322 322 322 324 324 322 322 324 324 324 322 320 316 310 309 310 310 310 310 310
321 321 320 315 312 310 311 313 313 310 309 312 313 314 318 317 315 317 317 315 317 320 320 319 318 317 317 317 316 317 316 316 319 318 316 316 317 316 318 317 316 318 316 317 323 321 318 320 319 320 322 322 325 326 322 322 321 319 318 322 325 324 326 327 326 324 325 325 324 323 322 324 326 324 323 321 322 323 321 320 317 311 310 310 309 309 309 310
321 321 321 318 314 311 311 313 313 310 309 314 316 315 317 317 317 318 316 314 319 323 318 318 320 317 317 317 317 317 317 316 316 316 315 315 316 315 317 317 315 320 321 318 322 322 316 314 314 318 320 318 321 319 315 318 317 315 322 328 329 329 328 330 329 325 326 326 325 325 324 324 326 326 324 322 322 324 321 320 319 312 310 310 309 309 309 309
321 320 320 319 316 312 312 313 312 310 312 315 316 315 316 319 320 319 317 313 315 320 317 318 319 317 317 318 319 318 317 316 314 316 317 316 316 316 317 318 318 322 323 321 323 321 317 317 316 316 316 314 318 317 313 315 314 318 331 331 329 330 329 330 328 324 325 327 325 325 323 323 325 325 324 322 321 320 319 321 322 315 310 310 309 309 309 310
322 320 319 320 318 313 311 312 311 311 314 316 316 315 317 320 321 320 317 312 313 320 321 320 319 318 317 319 320 319 318 317 315 316 318 317 318 317 317 320 320 322 324 323 323 321 321 322 318 315 314 315 321 322 318 317 316 322 330 328 326 327 326 328 327 324 325 324 321 320 320 321 323 323 322 321 320 319 316 315 317 314 310 311 311 309 309 309
322 321 319 318 318 316 312 311 312 313 315 316 315 316 318 321 322 320 316 312 316 321 321 321 320 319 319 321 322 319 319 320 316 316 318 317 318 317 318 321 321 324 328 323 321 322 324 323 318 317 317 316 320 322 321 321 320 321 324 325 326 325 325 327 325 323 324 324 320 317 318 321 322 323 322 321 318 316 312 311 312 313 312 312 311 310 309 308
322 321 319 318 318 318 314 312 313 314 316 316 315 317 319 320 320 319 317 314 318 320 320 321 320 319 319 322 323 319 320 321 317 317 319 318 319 319 319 321 319 323 327 322 320 323 326 326 322 320 319 318 319 320 322 324 320 319 322 324 325 326 329 329 326 325 326 325 319 315 319 325 326 326 321 314 311 309 309 310 311 312 312 312 311 310 308 308
320 320 319 317 317 317 314 312 313 315 316 316 316 318 320 320 318 318 317 315 320 323 320 320 320 320 321 323 322 319 320 322 317 317 319 319 320 320 319 319 317 321 325 323 322 321 323 328 325 318 316 317 318 317 318 322 321 319 321 323 324 325 328 327 325 324 323 323 320 317 321 325 324 322 316 310 309 309 308 308 309 311 311 310 309 309 308 308
320 320 319 317 316 316 315 313 313 315 316 317 318 319 319 320 318 318 317 316 321 324 321 319 321 323 323 322 322 319 319 322 319 318 320 318 319 319 318 319 316 317 321 322 324 323 323 327 321 314 314 315 316 316 315 319 323 320 319 322 321 321 323 325 323 320 319 322 322 319 321 322 320 320 317 314 314 313 310 308 307 308 308 308 308 308 308 308
321 320 319 317 316 317 315 313 313 315 317 317 319 319 319 319 317 318 319 317 319 321 321 321 322 323 323 322 322 320 320 321 319 320 321 319 320 320 318 319 317 316 318 320 324 325 325 327 319 315 319 314 311 315 314 313 318 321 322 321 319 320 324 327 326 322 321 324 323 321 322 322 322 322 321 317 316 317 317 313 307 304 305 305 306 307 307 307
321 319 319 318 317 317 315 313 314 316 317 317 318 318 319 318 316 317 318 318 319 321 322 321 320 321 323 322 322 320 320 322 319 319 322 320 321 321 318 320 318 315 316 318 322 323 323 325 320 314 317 314 311 317 319 314 313 318 321 319 320 325 326 324 325 325 324 325 325 323 321 320 321 322 322 319 320 323 320 316 312 307 303 303 305 306 306 306
319 317 317 318 317 317 315 314 315 316 317 318 317 318 318 318 316 315 317 318 319 320 320 319 318 320 322 322 322 320 319 322 319 318 322 321 321 320 317 320 320 315 315 316 320 324 322 324 323 314 313 314 313 317 322 319 314 313 316 316 319 324 323 322 324 325 326 327 327 325 323 323 322 322 323 321 322 324 320 318 316 309 303 303 305 305 305 305
318 317 317 318 317 317 315 314 315 317 318 318 317 317 318 318 316 315 316 317 318 318 318 318 317 319 321 321 321 321 320 320 319 319 321 320 320 320 316 318 321 317 315 315 318 323 322 322 323 316 311 314 318 318 320 320 316 315 318 319 318 318 319 321 322 322 325 327 327 327 325 325 324 321 321 321 320 320 319 318 315 308 304 305 305 305 306 306
317 317 317 318 317 317 315 315 316 317 318 318 316 316 317 317 317 316 316 317 319 319 318 318 318 318 320 320 320 321 320 320 319 319 321 319 320 322 318 317 319 318 316 317 319 321 322 322 324 320 314 317 321 318 315 317 318 317 318 319 318 318 319 322 322 320 321 323 326 326 324 324 326 321 319 322 321 316 312 312 311 308 306 306 305 306 307 307
317 315 315 316 318 318 316 316 316 316 317 316 315 315 316 317 318 317 317 317 320 321 319 320 321 319 319 321 320 320 321 320 319 318 320 319 319 322 320 316 316 316 316 319 319 319 320 323 324 321 317 317 319 314 310 312 316 317 318 319 319 318 319 322 323 321 320 321 322 323 323 323 321 318 317 316 313 308 307 307 307 308 308 306 305 306 307 307
314 313 312 313 316 317 316 317 317 316 316 314 313 314 315 316 318 317 317 318 320 321 321 321 322 319 319 321 320 320 320 320 319 318 320 319 319 319 317 315 316 316 317 320 320 317 318 322 323 321 318 317 318 315 310 311 314 316 318 319 318 318 318 321 324 322 321 321 321 321 323 321 317 316 310 304 304 305 307 308 307 307 308 307 306 306 306 306
313 311 311 312 314 316 317 317 317 316 316 314 313 313 314 315 316 317 318 318 319 321 322 321 321 320 321 322 321 320 320 321 320 318 319 321 318 315 314 315 316 317 318 320 320 318 320 323 323 324 323 320 321 319 315 314 315 316 319 318 316 317 318 320 321 320 320 321 321 322 323 320 318 317 310 305 310 311 307 307 308 308 308 308 306 306 306 306
311 310 310 311 313 315 316 316 315 314 314 314 314 313 314 315 315 316 317 317 317 319 321 321 321 320 321 322 321 319 319 321 322 320 319 320 316 311 310 313 315 316 317 318 317 317 321 324 322 323 325 324 323 323 320 317 315 316 319 317 315 316 317 318 319 319 320 321 321 321 323 320 318 317 313 313 318 318 311 307 308 308 308 308 307 306 306 306
309 309 309 309 310 311 312 313 314 313 312 313 313 313 314 314 314 314 316 317 316 317 319 320 319 319 321 322 321 320 320 320 322 321 319 320 319 311 308 309 312 314 315 316 316 318 322 323 321 322 324 324 324 324 321 319 318 317 318 317 316 316 316 317 319 320 320 321 320 320 320 321 320 319 318 317 319 325 321 310 306 308 308 307 307 306 306 306
308 308 308 308 309 310 310 310 311 311 311 311 312 312 313 314 314 314 315 316 316 316 317 319 319 319 321 321 321 321 320 319 320 320 319 319 318 311 306 307 309 311 313 314 315 319 323 322 320 322 322 322 326 324 319 319 319 318 318 317 316 316 315 317 318 319 321 321 321 321 320 321 321 318 319 319 319 324 320 309 307 308 307 306 307 306 306 305
308 308 308 309 310 309 310 310 309 308 309 310 311 311 312 313 314 315 315 315 316 317 317 318 319 320 320 321 321 321 320 319 318 319 319 317 314 311 309 308 307 308 312 314 314 318 323 322 319 321 321 320 324 322 317 317 319 317 318 317 315 315 315 316 317 318 320 321 320 321 321 321 319 318 319 318 316 316 314 310 309 308 307 306 306 305 305 304
309 308 307 309 309 308 308 309 308 307 308 310 310 310 311 312 313 314 315 316 316 317 318 318 318 319 319 320 321 320 320 320 319 318 318 316 314 314 313 313 310 307 310 315 314 314 320 322 320 319 320 319 320 319 316 317 317 316 317 317 315 315 315 316 317 317 318 319 319 320 321 320 318 319 320 316 311 309 309 308 308 308 306 306 306 305 305 304
309 308 308 308 308 307 306 307 307 306 307 308 310 310 310 311 312 313 314 316 316 316 317 318 318 318 319 319 320 321 320 320 321 319 317 316 315 314 316 317 314 309 309 313 314 312 317 321 318 317 319 319 318 317 317 317 317 317 317 316 314 314 314 314 316 316 317 317 318 318 319 319 317 316 315 311 308 307 307 307 308 307 307 306 306 306 305 305
308 308 309 308 307 307 306 305 305 307 307 308 309 309 309 309 310 312 314 315 315 316 317 318 318 318 318 318 319 320 319 319 320 318 315 316 316 315 315 315 312 311 310 312 314 313 315 317 316 317 320 319 318 318 317 315 315 316 316 315 314 313 314 314 314 315 316 317 317 317 317 318 316 312 309 307 306 306 305 306 307 307 307 307 306 306 306 306
306 307 308 308 308 308 307 306 305 307 308 308 308 309 309 309 309 311 313 313 314 315 316 317 318 318 318 318 318 319 319 318 318 316 314 315 315 313 312 310 309 311 312 311 313 313 314 315 315 316 320 319 317 317 316 315 315 318 318 317 314 312 313 314 314 314 315 315 317 317 316 317 317 314 312 311 308 306 305 306 308 308 308 308 308 308 308 308
Wind_Speed
14 13 14 13 13 12 12 11 11 11 11 11 10 10 10 10 10 10 11 10 10 9 8 6 5 3 2 2 2 1 2 4 6 6 4 3 3 4 4 3 3 4 3 4 5 4 4 4 4 3 3 3 4 5 5 6 5 3 3 4 2 2 2 3 6 6 5 5 6 8 8 6 4 5 7 5 5 8 7 6 7 7 9 9 9 12 13 10
15 14 14 14 13 12 12 12 12 11 11 11 11 11 11 11 11 11 11 10 9 9 7 6 4 3 3 2 1 1 3 5 6 4 2 2 3 3 3 4 5 5 4 3 3 3 3 2 2 2 2 3 3 4 4 5 6 4 3 4 2 5 2 1 6 6 3 7 10 9 7 7 7 8 8 4 5 9 7 6 7 7 9 9 10 11 10 9
15 14 14 14 13 13 12 12 12 12 12 12 11 11 11 12 12 11 11 10 9 8 7 6 4 3 3 2 1 1 3 4 2 1 1 1 1 5 7 9 9 7 5 4 3 2 2 1 1 1 2 2 3 4 4 5 4 2 4 4 3 6 2 2 5 5 6 11 12 8 6 8 10 8 7 6 7 7 6 8 8 9 12 12 11 11 9 9
14 13 14 13 13 12 12 12 12 12 12 12 12 12 12 12 11 11 11 10 9 8 7 5 4 4 3 2 1 2 2 1 2 3 4 4 7 10 12 13 11 9 6 4 3 3 3 2 2 2 3 2 2 3 4 5 3 2 3 3 5 6 3 3 6 6 8 12 11 9 7 6 9 9 7 9 7 4 10 14 12 12 15 14 12 11 10 10
13 13 13 13 13 12 12 12 12 12 12 12 12 12 12 12 11 11 10 10 9 8 7 6 5 4 3 3 2 2 1 2 3 5 6 7 10 13 14 12 9 7 5 3 3 4 4 3 3 3 4 2 2 2 2 5 4 3 1 1 5 7 3 4 7 8 10 9 8 8 6 6 9 8 9 11 7 5 10 16 16 13 14 13 12 11 10 11
13 13 12 12 12 12 12 12 12 12 12 12 12 12 12 12 11 11 10 10 9 8 7 6 6 5 4 3 2 2 0 1 4 6 6 7 10 12 11 8 5 3 4 2 1 3 4 2 3 3 3 2 2 2 2 4 4 2 1 1 3 5 4 7 9 8 8 7 8 7 5 7 9 6 8 12 9 8 8 12 15 13 12 12 11 11 10 11
12 12 12 12 12 12 12 12 12 12 12 12 12 12 12 12 11 11 11 10 9 9 8 7 6 5 4 4 2 3 2 2 6 6 6 8 9 10 8 5 1 3 3 1 1 3 3 2 4 4 3 3 2 2 3 4 4 4 1 1 2 3 5 9 8 6 6 6 7 5 5 8 9 5 6 10 11 9 8 9 13 13 13 12 11 11 11 12
12 12 12 12 12 12 12 12 12 12 13 13 12 12 12 12 11 11 11 11 10 9 8 7 7 6 5 4 3 3 4 4 7 7 7 8 7 7 5 4 3 4 2 0 1 3 3 3 4 4 3 2 2 1 2 4 4 4 2 1 1 2 6 8 7 7 7 6 6 6 6 7 7 5 5 9 11 10 11 12 13 14 13 12 13 13 14 15
13 13 13 12 12 12 12 13 13 13 13 13 13 13 12 12 12 12 11 11 10 9 9 8 7 6 5 5 3 3 3 4 7 8 8 7 6 5 5 4 4 3 2 3 3 4 3 3 4 3 2 2 3 2 3 3 1 2 3 1 0 1 4 7 9 10 9 8 8 6 6 7 6 5 6 10 12 12 14 15 15 14 14 14 14 15 16 17
15 14 14 13 13 13 13 13 13 13 13 13 13 13 12 12 12 12 12 11 10 10 9 9 8 7 6 5 4 2 3 6 8 9 8 6 5 3 3 2 3 3 3 4 5 4 4 4 3 3 2 2 3 2 2 2 2 3 3 1 2 4 5 7 10 12 10 9 10 8 6 7 5 3 5 9 13 16 17 16 15 15 15 15 15 15 16 16
15 15 15 15 15 15 15 14 14 14 13 13 13 13 13 12 12 12 12 11 11 11 10 9 8 8 7 6 6 4 4 6 8 9 7 5 4 3 2 1 2 2 2 3 4 4 4 3 2 1 1 2 2 2 1 2 3 2 1 3 5 6 8 9 11 14 11 6 10 10 4 5 2 3 8 10 15 18 18 17 16 15 15 15 15 15 15 15
16 16 15 15 15 16 15 15 15 15 14 14 13 13 13 12 13 13 12 12 12 11 10 9 8 8 7 8 10 7 5 7 9 9 7 6 5 4 3 3 3 3 3 3 3 4 4 3 2 2 2 4 2 1 1 3 2 1 2 3 6 8 7 9 10 13 11 4 6 7 2 5 4 7 9 10 16 18 18 18 17 17 16 16 16 16 16 15
17 17 16 15 16 16 16 16 16 16 15 15 14 14 13 13 13 13 13 13 12 11 10 10 9 8 7 8 9 7 7 8 10 10 9 8 7 7 6 5 5 5 4 4 4 4 4 4 4 3 4 4 2 2 3 3 2 1 2 1 3 7 6 6 4 8 10 4 6 9 2 6 7 10 8 11 18 20 19 19 19 19 18 17 17 17 16 15
19 18 17 17 16 16 16 16 17 16 16 16 16 15 15 14 14 14 14 13 12 11 10 10 9 8 8 8 7 8 9 9 11 12 11 10 9 8 7 6 6 6 6 5 5 5 4 5 5 4 4 3 3 4 2 3 2 1 1 2 2 2 4 6 1 9 8 4 10 11 1 7 8 9 9 14 20 21 22 22 21 21 20 19 19 18 17 16
22 21 19 18 18 18 17 17 18 17 17 17 17 17 16 16 16 15 14 13 12 11 11 10 8 7 7 8 9 9 10 12 13 13 12 11 10 9 8 7 7 8 7 7 7 6 5 6 5 3 3 3 4 4 3 4 3 2 1 3 3 2 5 9 2 12 8 3 10 9 1 8 10 9 11 18 21 22 23 23 24 23 22 21 20 19 18 17
24 23 21 20 19 19 19 19 19 18 17 18 18 17 17 16 16 15 14 13 12 11 10 9 9 8 4 6 8 9 12 14 13 13 13 12 11 10 9 8 9 8 8 7 7 7 6 6 5 3 4 4 4 4 4 3 3 3 1 3 3 3 3 7 2 8 8 5 7 6 3 4 6 5 12 20 23 23 22 23 25 25 25 24 22 21 20 19
26 25 24 22 21 21 20 20 19 19 19 19 19 17 17 16 16 15 14 13 12 11 10 8 7 7 6 7 9 11 15 15 13 13 13 11 11 10 9 9 9 8 7 6 6 7 7 7 5 3 2 3 3 5 3 2 4 3 0 2 4 4 2 3 4 3 7 7 5 6 4 7 6 2 13 21 23 24 23 25 27 27 27 26 24 22 22 22
28 27 26 24 23 22 21 21 20 20 20 19 18 17 16 16 15 14 13 13 12 9 7 9 6 2 8 13 13 12 13 13 13 13 12 11 11 9 9 8 7 8 7 6 6 8 7 4 4 1 2 2 2 5 3 5 4 3 3 2 4 3 3 4 4 2 7 4 5 6 6 12 11 6 13 21 23 25 26 26 27 28 28 27 26 25 24 23
27 28 28 26 25 24 23 22 21 21 20 18 17 16 15 13 12 12 13 13 14 8 4 12 15 5 2 12 16 13 9 11 13 13 13 12 11 11 9 7 8 10 9 6 4 7 7 4 4 2 1 3 5 7 8 8 7 6 6 4 3 4 4 5 5 5 8 4 5 8 9 12 13 11 13 21 25 26 26 24 23 26 28 27 27 27 26 25
26 27 27 27 26 26 25 23 22 22 20 17 16 14 12 10 6 7 14 19 22 19 10 11 19 14 2 4 12 13 10 11 13 14 14 13 13 11 10 9 9 7 6 5 3 5 7 4 2 5 7 9 9 10 9 5 6 5 4 3 4 4 5 4 5 6 6 5 6 9 10 11 13 11 12 18 21 22 23 22 23 26 28 30 31 30 29 27
25 26 26 26 26 26 26 24 23 23 20 17 18 16 12 12 7 4 11 19 25 29 22 12 14 18 9 3 9 12 11 12 14 15 14 15 14 11 10 10 7 3 3 5 5 3 5 5 7 10 10 9 9 9 7 3 3 2 2 3 4 4 6 6 5 5 3 4 6 7 8 11 12 11 12 12 13 18 26 26 27 29 30 32 33 32 31 27
23 25 25 24 25 26 25 24 23 23 20 19 21 19 14 15 14 8 6 10 17 24 28 24 19 20 16 9 10 12 12 10 13 16 16 18 17 12 11 9 4 3 3 4 5 2 3 5 10 13 7 5 6 6 6 5 5 4 2 2 4 4 4 7 5 4 1 4 5 6 7 10 11 10 11 12 14 22 33 34 34 34 33 35 35 34 32 29
21 24 24 24 24 24 24 23 22 22 21 21 23 23 18 15 16 13 7 6 10 16 24 28 29 28 24 17 14 16 16 11 12 18 19 20 20 15 13 10 4 4 4 4 6 4 4 6 12 13 8 6 5 4 6 4 3 4 4 2 5 4 2 5 5 3 1 2 3 5 8 7 7 7 8 17 23 24 28 31 34 35 34 37 38 37 36 35
19 22 24 24 23 22 22 19 19 21 21 21 23 22 18 14 14 13 9 5 7 12 19 24 27 32 32 24 19 21 21 16 15 19 22 24 21 14 12 12 6 4 5 9 9 7 6 6 5 9 10 8 7 5 6 4 3 5 6 6 6 6 7 6 4 4 4 4 2 4 8 7 6 9 10 13 16 17 20 22 27 33 34 33 33 36 38 37
19 20 22 23 22 21 19 18 21 23 21 21 22 20 17 13 11 8 5 3 5 7 12 17 20 25 30 26 21 21 19 18 19 20 23 27 24 13 9 12 7 4 8 9 7 7 8 6 2 8 7 7 7 5 6 7 4 5 5 9 10 9 8 6 2 4 4 5 4 1 5 7 4 8 11 8 4 9 15 17 23 30 30 30 32 36 38 36
20 19 21 23 21 19 18 19 24 24 22 22 20 19 17 12 9 6 3 2 5 4 4 11 14 14 21 24 23 18 10 12 19 22 23 25 26 15 6 7 6 5 7 7 4 3 5 7 5 7 6 7 7 6 6 8 5 4 6 10 11 8 6 5 1 1 2 4 4 2 2 7 5 5 9 6 3 9 12 12 19 25 28 33 36 37 38 38
22 21 20 23 22 21 22 21 23 23 21 19 18 21 18 13 11 6 4 3 5 6 7 9 11 10 14 22 29 19 3 7 15 20 25 25 26 19 8 6 4 4 6 5 3 3 4 8 6 6 6 6 6 5 6 8 7 4 5 6 8 7 6 5 4 3 4 3 4 1 3 6 9 6 6 7 6 10 12 10 15 21 28 34 36 37 39 40
25 23 20 24 24 25 27 24 23 25 20 13 19 25 20 15 13 7 5 1 3 6 6 7 10 12 13 22 33 19 6 12 11 15 28 28 25 17 7 8 7 5 8 7 4 4 4 8 9 9 7 5 6 6 7 9 5 6 3 6 6 6 5 4 4 4 1 3 4 2 4 3 10 5 1 3 7 11 14 13 14 19 26 31 33 35 37 38
27 25 22 23 23 25 29 25 23 24 17 10 18 25 21 17 12 6 3 2 2 4 3 8 10 10 15 22 24 14 9 8 3 12 25 23 23 12 2 8 7 5 8 7 5 3 1 5 9 10 7 6 6 3 6 10 5 4 6 6 5 5 4 5 4 3 2 3 5 6 5 4 8 3 3 1 5 10 12 12 11 15 24 30 31 31 33 35
29 27 25 22 23 28 29 28 26 20 16 13 17 25 24 17 8 4 3 3 2 1 4 9 9 11 19 17 8 4 6 2 4 14 14 10 17 10 2 6 5 4 3 4 3 3 2 1 4 5 4 6 5 3 2 6 6 7 7 6 6 6 5 4 2 4 1 6 6 9 9 5 6 4 4 4 5 7 8 8 8 8 18 27 29 31 33 35
32 29 27 25 27 29 29 34 32 21 20 18 19 28 25 10 3 4 7 1 1 2 5 5 4 9 17 14 6 5 3 1 7 14 8 4 9 6 3 5 3 3 1 5 3 4 4 1 1 3 5 6 7 5 3 2 5 7 5 4 4 4 4 4 4 3 1 7 5 9 10 9 8 6 3 5 6 5 6 6 7 6 14 23 27 31 33 35
34 32 30 29 28 28 31 37 32 23 23 19 22 30 20 5 2 6 6 2 0 5 6 4 3 7 11 10 8 8 5 3 7 10 7 4 6 7 6 6 5 3 2 5 3 3 2 3 2 1 5 7 7 4 3 4 3 5 5 6 3 2 3 3 3 0 4 7 3 5 6 6 9 8 7 10 12 10 8 9 10 10 13 20 27 31 33 35
36 34 33 32 31 31 34 35 29 25 22 20 24 21 9 4 8 10 9 5 2 3 4 4 5 9 13 9 6 6 4 2 7 7 5 4 5 7 5 4 6 3 2 5 3 1 3 5 1 1 4 9 10 7 3 1 3 5 6 6 5 2 1 3 3 2 4 5 4 2 3 3 5 6 10 15 16 14 10 13 16 16 16 18 23 30 33 35
39 36 36 37 35 33 33 33 30 28 24 25 24 12 5 8 10 12 16 10 2 1 3 4 7 9 10 7 4 7 4 3 6 6 4 5 5 6 5 5 8 3 3 4 3 6 4 6 5 7 4 10 12 9 7 6 5 6 5 6 6 5 4 4 4 4 4 4 4 1 2 3 3 3 7 9 10 11 10 13 15 17 18 16 20 28 33 36
40 39 39 39 37 35 34 34 33 30 31 30 20 9 9 10 8 12 14 8 3 1 3 4 8 7 6 3 2 6 4 3 6 5 4 6 5 7 7 8 10 6 5 4 2 4 4 6 7 4 3 12 12 7 7 8 3 3 3 5 3 5 6 3 3 5 3 2 4 2 4 5 4 6 8 6 8 8 8 10 10 12 14 15 21 28 33 37
42 42 42 42 44 42 37 37 35 34 38 30 11 8 12 11 10 9 7 6 6 5 6 4 4 5 6 3 2 6 3 2 6 5 4 4 3 6 7 7 11 11 8 7 3 3 3 5 5 2 1 6 7 6 6 5 4 1 2 5 3 3 6 3 2 1 2 3 4 4 5 5 3 8 8 4 7 9 8 7 7 9 11 16 24 29 34 38
49 47 46 50 52 46 40 42 40 40 42 26 8 10 11 12 15 9 4 6 9 11 9 4 4 5 7 5 4 7 4 2 5 5 4 3 3 7 8 5 10 17 14 7 2 3 4 3 4 1 2 3 1 5 4 2 5 5 4 6 2 3 2 2 2 1 1 5 5 4 8 5 1 5 5 4 4 10 9 7 6 8 13 19 24 29 33 36
54 50 49 56 55 48 45 45 44 47 40 16 7 14 11 14 21 14 6 8 10 11 8 7 6 6 7 7 5 8 7 4 6 6 4 4 5 8 11 6 9 19 21 10 2 2 3 2 4 1 2 3 2 5 3 4 3 4 4 6 4 1 2 2 2 3 2 4 5 3 5 5 5 5 3 2 7 10 10 7 6 9 15 20 23 27 30 33
45 41 40 53 56 50 46 47 52 50 30 7 8 15 11 16 24 20 15 13 11 10 8 10 9 5 7 8 6 8 9 8 9 7 5 5 5 7 14 11 8 17 23 15 5 2 2 2 3 1 0 1 2 2 4 3 1 3 2 3 3 2 3 3 3 3 3 3 4 3 3 4 6 6 6 9 11 10 10 8 8 13 19 23 25 27 31 33
33 24 21 42 53 49 48 53 52 37 15 7 12 14 12 14 16 20 25 19 10 9 10 12 12 7 7 8 7 8 9 8 10 9 6 7 5 5 11 11 6 10 19 17 8 2 2 3 3 2 2 1 2 4 7 9 6 3 4 5 3 1 2 1 2 2 3 4 3 4 5 5 5 4 7 10 10 9 10 9 10 14 20 24 26 29 32 34
28 14 7 24 39 48 55 47 31 17 9 8 12 12 13 11 8 16 27 22 10 8 8 9 12 10 7 8 8 7 7 6 8 8 5 7 7 4 9 16 11 10 11 10 8 5 3 3 3 2 1 3 5 5 5 7 7 6 7 8 8 6 4 2 4 2 3 3 4 2 6 7 4 3 5 7 7 7 8 8 10 13 18 24 26 29 32 33
21 10 6 13 26 50 56 29 12 13 10 11 16 15 9 5 5 12 19 18 10 6 5 4 8 11 8 8 9 8 8 7 8 8 6 9 11 6 11 22 21 19 15 7 6 6 4 3 3 3 4 5 6 4 2 4 3 3 3 5 7 7 7 6 6 4 2 2 3 2 5 8 3 4 5 5 7 9 10 11 13 14 15 21 25 28 30 32
18 18 21 17 23 49 44 13 8 14 8 13 21 16 9 6 6 8 13 15 10 5 5 4 4 9 9 7 8 9 9 7 9 12 8 8 10 7 11 21 22 18 13 4 2 3 4 3 3 1 2 3 4 4 1 1 2 2 3 4 7 8 8 6 4 4 4 4 3 2 6 7 3 2 4 6 7 9 11 12 15 15 14 18 23 27 29 31
16 21 24 17 24 41 29 8 11 12 8 14 17 15 16 13 9 10 11 14 12 5 5 4 3 6 7 4 7 10 12 8 8 13 10 6 7 6 11 22 22 14 10 8 9 10 7 3 4 3 1 2 2 2 2 1 2 4 4 6 8 8 6 3 1 3 3 7 9 6 9 6 2 3 4 5 5 5 8 9 12 16 16 17 22 25 28 30
8 11 16 18 29 35 20 9 11 9 10 14 13 16 19 12 13 19 14 12 14 8 5 5 5 5 4 4 5 8 13 13 9 9 8 5 3 2 7 17 19 14 12 14 18 18 9 4 6 7 7 8 7 6 5 3 3 2 3 7 10 11 12 7 3 4 6 6 11 10 12 6 1 3 4 5 4 5 7 7 9 14 17 19 22 25 29 31
6 4 7 13 24 27 21 18 11 6 10 13 9 13 19 12 14 22 17 12 15 14 7 3 4 5 2 4 6 8 14 14 6 5 8 8 3 1 5 10 12 12 9 11 20 17 4 2 10 13 13 13 9 5 5 7 6 7 9 12 13 14 15 10 5 8 6 3 7 13 13 10 9 6 6 5 4 5 7 7 10 15 17 19 21 24 27 31
9 4 5 6 10 15 19 18 10 3 7 12 6 7 18 18 12 13 16 14 16 18 11 3 4 7 6 8 9 9 11 9 3 4 9 8 3 1 3 4 5 8 6 12 22 14 4 4 12 13 16 13 5 4 7 10 12 14 14 14 14 14 14 13 12 11 7 4 11 10 7 12 18 12 10 8 6 6 7 10 15 16 16 17 19 21 25 28
11 5 12 12 4 4 11 12 10 8 9 11 8 5 13 19 14 10 14 15 16 17 12 5 9 14 14 14 10 7 8 7 6 7 7 5 3 2 2 1 1 3 2 9 15 8 3 8 10 11 16 12 5 5 7 9 9 10 13 15 16 15 16 17 19 16 10 9 15 7 10 17 20 12 10 10 10 12 12 14 16 14 14 17 19 22 26 28
12 5 11 17 8 4 8 7 6 7 7 7 8 8 10 16 18 13 10 9 11 13 13 12 17 20 18 15 11 9 9 9 11 11 7 6 5 4 3 1 3 4 2 5 7 4 4 6 6 9 15 13 6 6 6 8 6 5 9 14 15 17 19 20 21 19 13 14 19 11 12 20 14 6 8 9 12 14 11 11 12 12 14 18 20 23 26 27
12 5 8 14 10 7 9 7 4 3 4 4 6 7 7 12 19 16 10 11 11 12 16 21 23 20 17 16 14 13 15 15 15 13 11 9 7 7 7 5 5 6 5 4 4 3 5 5 4 7 9 11 8 7 6 8 7 6 11 13 12 14 16 16 17 14 11 16 21 15 16 19 8 5 5 6 8 9 9 11 13 14 16 18 21 23 25 26
15 11 9 9 6 7 9 7 4 3 3 3 4 5 5 9 15 14 12 15 16 12 14 22 24 17 13 16 17 18 21 20 13 10 15 17 12 9 7 6 8 9 6 5 4 3 5 3 3 6 7 9 9 10 9 6 4 7 17 17 12 11 11 13 14 13 14 18 18 13 15 18 7 4 3 5 9 11 12 14 15 16 18 21 23 24 24 24
16 14 11 8 6 9 10 5 5 5 4 5 6 6 6 8 9 9 8 11 16 18 17 20 19 12 9 15 22 28 28 20 11 9 16 21 15 7 5 7 13 13 8 5 3 3 5 5 4 6 8 7 6 11 9 5 3 9 17 15 15 13 14 14 14 16 18 15 12 12 15 13 5 6 5 5 6 8 12 17 19 20 21 22 22 22 21 20
Wind_Direction
211 211 212 214 214 217 218 216 211 205 201 197 196 195 196 198 197 194 189 184 182 185 189 195 198 200 218 213 202 228 266 292 300 306 300 281 293 276 256 216 166 148 159 169 160 151 134 110 89 78 60 59 39 33 59 48 37 63 98 84 98 153 162 182 184 191 166 169 192 188 183 168 166 165 146 128 137 142 135 132 132 149 160 172 180 174 184 188
213 214 217 218 217 218 217 212 206 203 202 200 199 199 200 199 196 193 187 185 186 190 195 198 202 208 220 214 209 241 289 303 301 296 251 282 301 250 195 156 144 136 137 150 167 171 150 118 79 61 33 68 50 42 65 42 46 66 101 92 166 199 197 208 177 186 170 161 169 167 176 184 181 173 161 155 154 147 132 125 137 158 167 175 178 174 189 193
214 215 216 217 216 214 213 210 205 203 204 203 204 202 201 199 195 192 189 189 191 195 200 203 211 214 219 216 208 275 316 319 324 72 92 355 71 142 137 132 125 117 113 107 134 160 160 135 85 81 35 65 48 51 63 38 37 46 83 89 229 208 160 63 134 169 184 162 154 146 161 180 178 178 179 167 168 175 176 170 170 183 186 185 182 180 186 192
210 211 212 211 209 209 210 210 208 208 207 206 206 203 202 199 195 195 194 195 197 202 206 210 219 218 224 217 215 290 332 11 121 94 75 88 119 132 130 128 117 102 91 88 115 130 137 112 95 68 46 72 48 63 58 32 26 25 90 143 204 179 134 114 122 130 157 157 155 151 149 169 176 187 196 160 149 227 222 206 208 212 205 197 190 186 184 189
206 208 209 209 207 208 209 211 211 211 211 208 206 204 201 199 198 198 200 203 205 209 213 221 225 223 230 214 219 267 42 82 132 104 94 114 127 134 132 127 114 93 73 78 127 128 126 111 96 66 52 76 50 68 50 37 60 60 46 177 171 160 158 171 144 131 149 157 161 156 155 181 181 193 204 180 176 238 232 223 225 224 213 207 200 194 188 187
206 208 209 211 210 210 211 212 212 211 212 210 207 205 203 201 202 203 207 211 212 215 221 226 227 230 229 218 236 238 165 98 156 125 113 130 135 140 139 133 116 49 28 42 159 140 133 111 83 71 59 57 40 87 74 41 63 91 306 12 148 175 178 172 165 155 163 169 173 175 190 185 176 200 213 205 220 242 245 230 220 214 204 203 203 201 198 193
207 208 209 211 210 210 212 212 211 210 210 210 208 208 208 208 207 210 214 215 218 222 226 230 232 235 227 226 237 222 247 231 179 158 143 146 148 152 151 155 190 327 345 27 179 144 142 124 79 72 75 66 63 99 76 52 69 101 176 286 122 185 181 174 180 189 195 201 203 198 195 186 183 201 213 216 230 236 232 215 205 200 196 202 209 215 218 210
209 211 210 210 211 212 212 213 212 211 211 211 210 211 212 213 214 217 218 219 223 227 231 234 234 231 225 230 228 232 259 226 183 170 165 165 168 175 186 220 273 303 296 258 187 154 147 118 82 76 88 83 100 124 78 59 52 83 154 235 117 182 187 185 203 218 222 229 225 215 210 208 204 214 231 227 226 216 207 200 196 197 203 214 222 228 229 223
215 216 215 214 215 216 216 217 216 215 215 215 215 216 217 218 220 221 223 225 227 231 234 235 236 230 224 223 216 243 242 183 176 173 175 187 198 211 232 250 265 273 263 249 211 183 168 120 96 92 111 124 108 107 86 61 350 126 141 179 300 226 199 202 216 220 228 233 223 222 239 238 227 243 262 241 222 206 198 197 200 205 213 220 226 229 226 222
222 221 220 220 220 221 222 222 222 222 222 222 222 222 222 222 224 225 226 229 231 234 235 234 235 225 218 215 210 228 185 159 169 179 184 197 206 212 220 236 255 250 243 231 211 190 174 142 117 93 98 111 96 97 72 72 167 153 129 215 262 256 252 234 226 228 231 233 225 215 236 248 234 228 248 231 209 201 198 198 205 212 217 220 224 224 219 215
225 226 225 225 225 226 226 227 228 228 228 228 229 228 227 228 228 229 229 231 234 235 236 235 233 225 216 209 206 203 178 169 172 182 193 194 187 182 191 213 237 230 211 200 203 198 184 166 169 190 127 119 97 89 71 110 141 137 37 308 292 297 285 249 229 232 224 231 232 214 236 274 219 208 239 222 203 202 201 201 206 211 217 220 219 217 213 212
226 228 229 229 230 231 231 232 232 232 233 232 234 234 233 232 233 233 232 234 235 237 237 235 232 227 219 221 224 220 204 194 186 191 201 197 201 223 248 243 224 218 204 175 179 195 195 192 200 215 172 151 138 66 104 135 128 44 38 329 307 341 313 250 233 226 207 218 229 194 283 294 216 223 240 217 200 198 200 202 205 209 216 218 215 212 210 212
226 228 231 233 235 237 237 236 236 236 235 235 236 235 235 235 236 236 235 236 236 237 237 235 234 229 223 233 235 223 211 208 205 208 210 218 234 247 252 241 223 213 203 191 185 185 190 198 199 182 154 150 156 130 132 121 99 302 43 42 308 354 324 261 250 203 190 211 190 158 263 278 247 239 222 199 197 191 194 202 205 208 212 214 213 213 213 215
225 227 230 232 236 240 241 242 241 240 239 239 237 235 234 233 235 236 236 237 237 236 235 233 233 230 230 239 239 223 214 212 216 218 220 230 241 246 246 234 220 212 210 210 199 196 194 194 198 181 158 148 140 134 98 35 56 293 3 26 352 354 280 295 10 160 169 218 177 147 217 262 267 259 206 194 198 193 196 202 205 208 210 213 213 214 217 218
227 227 228 231 235 238 242 244 245 244 242 242 240 238 235 232 234 234 235 237 236 234 231 229 230 228 235 244 240 229 222 218 220 222 224 232 237 242 240 227 220 216 215 217 210 213 210 197 196 172 147 145 128 113 33 357 12 32 12 310 329 180 260 309 267 168 164 199 176 151 224 262 274 266 208 193 196 198 202 204 206 209 210 212 213 215 218 220
236 231 229 230 233 237 241 243 246 247 244 243 242 240 236 235 234 233 234 234 232 230 226 225 223 218 235 248 235 227 224 220 219 222 224 228 232 236 234 223 221 220 220 224 223 219 207 190 176 145 144 146 123 93 49 5 338 357 158 245 272 195 266 321 282 189 165 141 182 195 223 257 286 264 197 190 195 200 205 208 208 209 211 212 214 216 218 220
240 239 236 232 232 236 239 241 245 246 244 243 242 240 237 235 235 233 231 228 225 221 218 218 217 221 241 243 230 227 230 224 217 219 221 225 226 225 224 216 209 211 211 208 204 194 185 171 154 158 131 104 105 96 65 317 289 314 302 233 245 208 222 289 306 240 163 144 200 224 235 245 270 241 186 192 198 202 207 213 212 211 212 213 214 216 219 221
239 241 241 238 237 238 240 242 243 243 244 242 240 238 235 232 232 230 225 221 213 206 218 211 185 224 251 231 224 229 231 223 215 212 211 214 212 207 208 208 199 190 175 173 179 169 168 150 127 137 38 57 111 113 148 227 209 200 192 214 255 240 224 241 279 230 165 169 206 203 240 251 262 258 203 201 201 206 214 217 215 214 213 213 215 216 220 223
239 240 242 242 241 240 242 243 242 242 240 238 236 232 229 227 225 228 223 212 198 186 218 208 191 174 246 218 218 225 223 208 205 206 205 205 201 194 191 190 183 175 161 154 179 169 156 108 87 116 192 206 192 169 193 206 173 169 176 168 195 231 251 232 251 232 179 181 219 205 225 243 252 253 223 212 208 212 222 224 221 219 215 214 217 219 222 224
239 239 240 240 240 240 242 243 243 242 235 231 225 217 215 203 196 227 219 213 213 212 220 215 206 207 192 182 204 207 198 190 196 200 199 200 194 182 175 169 163 168 168 157 180 175 153 146 167 193 210 205 196 197 206 185 147 141 141 164 198 223 265 252 263 267 185 174 240 221 223 241 244 250 242 222 211 216 225 228 227 223 217 217 218 220 222 224
242 240 238 238 237 237 240 239 241 240 232 223 212 204 202 191 186 231 216 221 230 227 229 232 217 215 218 209 200 198 185 181 192 195 192 195 187 174 174 166 146 167 205 147 124 134 153 184 217 217 214 200 194 203 208 182 160 169 164 223 253 230 256 256 254 280 182 173 257 243 234 250 245 250 256 225 199 218 224 221 226 224 219 219 219 220 221 221
248 242 239 238 235 234 236 234 236 237 230 218 207 204 206 205 210 224 224 240 247 237 234 233 227 222 220 218 208 200 188 179 189 192 188 185 183 185 179 163 151 180 168 119 102 113 186 222 233 226 204 163 189 194 187 204 213 225 210 243 267 244 273 279 268 288 173 179 257 272 255 255 251 252 254 224 205 224 228 223 226 224 219 218 217 218 218 216
257 247 241 238 233 231 230 229 231 233 226 216 211 208 208 212 215 223 238 271 269 250 237 232 231 228 222 217 210 201 197 190 189 190 186 182 185 192 177 163 179 161 136 157 159 165 199 245 243 221 174 149 201 185 154 187 226 220 208 204 250 248 256 276 283 300 286 223 262 289 279 265 262 265 258 239 229 232 236 233 231 228 223 222 219 219 218 216
265 252 244 238 232 227 224 221 226 232 225 216 216 211 208 213 215 223 234 264 282 255 241 237 232 230 226 222 214 207 207 208 202 194 188 184 182 183 184 182 171 143 180 194 186 192 211 251 240 180 166 172 198 198 164 179 239 234 209 198 228 238 221 234 286 321 332 331 328 313 295 274 240 243 251 247 236 235 240 236 233 231 229 227 222 219 219 219
266 257 248 237 230 223 214 213 222 229 224 217 217 207 201 207 206 212 223 273 287 257 246 237 230 233 229 221 214 206 209 219 217 207 197 193 187 174 182 190 173 178 206 193 189 220 234 248 126 131 164 177 179 210 197 184 218 257 223 206 218 225 224 231 327 5 354 323 313 3 294 279 240 231 247 258 248 240 238 231 231 230 225 224 222 219 217 217
264 260 249 237 229 212 202 216 225 225 222 221 212 193 190 190 179 182 146 18 286 232 202 209 215 225 215 208 197 186 210 229 216 212 206 201 199 187 170 179 179 204 193 171 191 235 227 221 161 129 157 170 181 223 217 181 183 257 237 206 209 206 207 219 174 42 276 267 294 75 198 277 279 217 232 240 240 250 242 232 236 230 220 219 220 219 215 213
258 257 250 241 228 203 199 218 226 221 219 221 202 181 180 172 157 154 114 13 279 187 152 180 189 189 194 194 183 174 207 194 187 206 203 198 200 196 193 182 172 204 168 142 229 250 179 197 189 149 152 163 186 220 218 173 162 243 244 175 178 184 198 213 188 207 236 261 310 46 129 277 281 242 209 192 207 253 255 246 244 231 221 219 218 217 215 212
253 254 249 242 232 211 205 215 224 219 213 205 189 180 172 164 159 136 114 305 257 149 147 175 169 173 179 181 181 174 136 146 154 199 195 192 197 196 211 203 175 187 174 155 223 251 150 179 195 181 174 191 201 214 188 159 171 246 207 129 144 165 173 155 154 201 289 359 294 236 132 259 278 273 126 185 215 248 255 251 247 232 223 221 217 216 214 211
246 250 248 243 238 222 210 213 224 221 208 183 181 180 168 161 156 107 98 225 194 127 146 162 155 164 161 166 180 172 132 142 136 181 183 189 194 191 222 206 183 175 192 196 213 236 141 189 196 178 179 208 207 217 171 164 198 205 131 92 73 72 76 84 117 134 47 314 242 203 163 232 272 251 107 121 231 241 250 250 253 239 228 223 216 213 211 208
238 243 244 238 231 222 210 213 222 213 189 179 179 176 168 160 143 113 191 222 203 146 137 156 164 165 156 154 180 171 136 133 112 150 165 181 190 192 124 170 164 139 206 273 236 247 321 179 191 179 183 188 157 81 127 173 170 131 102 61 46 32 35 49 50 82 41 276 229 187 179 190 272 271 162 190 220 224 237 254 271 249 226 222 216 211 209 207
238 236 238 236 232 223 210 213 218 198 177 183 178 170 165 155 114 175 203 237 336 169 128 152 180 157 157 156 169 178 144 111 136 147 153 152 177 187 144 147 126 105 284 297 283 311 334 71 213 205 168 137 111 76 33 89 130 114 88 78 67 348 8 24 354 56 218 263 227 184 182 186 232 262 226 235 261 238 219 241 265 243 221 221 217 213 210 206
239 234 236 241 239 229 216 218 217 188 177 185 178 171 164 147 223 216 205 91 10 199 158 169 185 153 164 167 175 176 150 156 168 162 162 153 172 188 186 189 168 133 251 239 241 324 290 237 263 231 179 161 127 95 35 21 72 97 99 110 112 309 3 2 310 137 223 261 270 186 179 204 237 257 257 256 268 260 233 237 253 253 236 225 217 213 209 205
241 235 234 238 240 234 223 222 211 184 181 182 175 176 173 182 200 208 206 182 203 211 141 141 155 155 164 169 186 171 133 177 178 169 171 149 174 207 227 226 184 158 196 193 194 197 257 296 295 135 233 196 166 153 173 214 160 151 142 142 155 168 191 257 246 255 255 272 302 184 174 257 273 270 248 242 255 266 268 264 263 263 255 238 223 214 208 204
241 236 231 232 240 241 227 217 201 185 184 178 169 176 227 217 201 203 209 208 203 53 85 130 138 151 170 177 192 166 146 221 178 158 170 148 166 212 230 236 208 166 101 147 174 179 215 291 205 182 206 185 183 187 173 142 154 181 154 141 161 162 175 217 209 224 254 283 303 258 171 210 204 248 242 240 266 281 283 276 267 262 257 243 220 209 205 204
241 239 232 226 232 234 224 212 198 187 186 177 168 184 204 206 215 216 214 200 168 52 50 110 119 139 195 238 247 186 169 213 173 148 172 173 185 199 195 212 202 166 133 171 216 167 199 266 233 215 159 166 181 190 137 109 138 227 111 122 185 181 175 207 200 182 180 291 290 220 219 221 205 265 267 256 274 277 274 273 263 252 243 219 203 201 203 204
238 236 230 223 224 226 219 205 195 190 188 179 173 208 197 200 213 214 205 176 168 142 107 104 108 147 199 217 249 217 198 127 153 159 198 199 220 204 197 210 194 184 179 176 182 156 176 271 276 353 77 174 180 167 144 142 173 162 127 175 199 154 157 205 259 122 117 270 265 195 242 284 302 282 283 271 262 267 272 265 242 231 214 197 197 199 201 203
229 226 223 220 222 224 215 201 193 193 192 186 192 206 196 212 213 204 190 166 150 138 136 166 185 170 188 197 207 203 193 115 154 175 192 192 238 204 197 220 194 196 203 186 195 194 163 254 282 101 173 250 131 115 95 72 133 131 183 197 148 63 115 145 266 331 112 257 270 202 231 262 245 267 319 19 262 261 262 251 236 223 203 198 200 199 200 202
225 218 218 220 220 218 210 198 192 193 194 195 215 205 201 216 213 205 178 149 139 145 166 204 195 171 183 195 198 185 179 174 176 186 180 187 242 198 179 201 200 200 206 197 220 245 152 226 291 67 167 282 34 106 69 11 100 130 184 176 125 127 196 129 194 224 196 243 277 253 235 231 202 224 291 275 236 248 253 239 231 223 207 204 202 198 198 198
223 212 216 221 216 212 205 195 192 192 192 199 207 204 212 217 213 204 182 166 160 165 188 210 203 189 187 183 171 174 186 185 170 176 187 191 233 198 177 188 200 200 200 190 190 234 135 190 267 339 326 313 27 135 178 214 337 45 98 149 115 141 176 168 180 177 167 215 257 290 285 240 222 210 208 225 230 236 242 233 227 223 212 207 203 197 197 198
223 215 228 223 213 209 202 194 192 193 193 209 201 204 219 216 209 200 193 189 180 181 202 211 203 198 193 185 172 173 191 193 173 181 204 193 205 217 188 183 179 187 190 188 193 180 119 193 236 321 334 199 189 207 191 188 184 143 152 173 176 128 110 179 220 140 141 177 212 279 286 257 242 209 196 221 234 232 232 231 235 230 217 212 207 202 202 202
222 222 252 227 218 211 200 193 196 199 201 208 205 215 225 221 205 198 202 204 202 200 206 209 207 202 183 180 190 182 178 188 185 189 210 201 206 234 198 187 172 153 165 186 205 196 170 185 174 158 219 204 222 242 220 203 192 178 187 186 179 170 139 178 239 197 146 188 178 211 270 260 237 197 200 223 242 249 248 242 250 244 224 216 212 208 208 207
218 222 243 234 220 204 193 189 202 201 201 208 207 212 212 203 196 196 202 206 210 218 205 198 210 204 188 185 193 181 169 180 190 193 212 210 206 214 199 190 174 155 152 170 203 187 142 123 141 176 210 215 239 258 237 225 200 158 196 187 176 187 176 183 223 206 167 222 156 133 276 276 251 191 207 237 255 272 275 257 255 257 238 224 216 211 212 212
222 232 238 242 217 198 190 189 209 197 206 213 209 212 205 195 196 187 193 201 205 201 194 201 206 203 204 187 174 177 179 186 193 195 208 215 210 219 200 184 170 156 155 156 177 153 121 130 164 199 292 304 302 302 327 34 118 148 220 188 182 206 199 189 203 173 177 209 153 151 260 264 280 230 231 265 271 277 279 260 250 253 245 229 221 215 213 213
219 225 228 233 218 203 195 195 201 198 210 204 203 212 215 220 213 191 191 199 201 182 181 212 215 208 212 163 159 184 186 192 208 203 204 207 206 211 188 179 173 167 174 181 170 167 169 172 154 151 290 324 322 278 254 248 186 198 219 197 196 204 189 177 117 117 221 205 168 199 245 234 269 294 283 302 307 293 280 260 245 244 239 228 221 216 214 213
211 217 216 211 210 209 213 227 208 203 208 200 196 203 209 223 219 210 207 201 203 197 185 207 195 188 203 163 164 185 190 202 212 201 204 212 206 194 177 185 187 186 194 190 171 166 171 169 160 178 213 221 221 217 205 190 181 198 195 186 198 200 189 190 183 188 230 196 168 209 242 236 284 303 295 311 322 302 282 265 243 240 238 231 223 216 213 213
188 202 212 209 213 219 240 253 237 212 206 203 201 201 204 213 216 213 212 208 214 212 205 207 167 160 188 183 183 194 204 214 210 177 196 198 203 228 175 188 200 200 205 184 164 158 141 186 189 198 215 220 221 212 155 131 154 203 203 189 197 204 196 191 207 213 203 155 196 222 235 255 269 258 255 274 275 269 272 264 244 237 234 231 224 218 214 213
181 188 183 189 217 222 234 245 241 231 210 199 191 198 204 208 210 204 204 211 216 212 215 241 174 180 192 191 202 209 204 208 189 173 194 188 181 291 169 166 188 192 189 170 165 154 93 213 205 208 222 223 194 168 170 158 179 202 202 197 201 201 192 191 214 217 152 148 240 225 192 246 258 245 237 245 241 244 250 246 240 235 230 226 220 216 213 213
188 205 190 184 190 206 219 229 216 219 230 209 198 204 206 209 207 192 198 212 214 205 206 223 214 212 204 193 202 210 192 198 208 201 194 174 149 118 126 24 232 192 156 160 168 149 117 211 210 204 221 224 142 143 187 173 184 203 201 203 202 194 191 198 216 217 168 195 245 216 167 230 248 245 238 228 217 227 234 236 236 229 223 219 212 210 210 210
194 206 189 189 198 196 195 195 176 202 236 225 214 214 207 211 212 204 194 198 207 205 201 211 221 220 212 201 199 201 193 198 211 209 185 160 164 152 144 223 231 215 187 159 176 160 153 204 197 186 219 229 177 163 185 167 175 211 209 209 203 195 197 201 215 219 200 220 244 231 223 244 245 221 231 230 226 230 227 222 219 210 210 210 206 207 208 208
210 213 182 187 205 194 176 181 168 186 225 223 219 213 204 212 214 212 201 186 192 199 199 212 223 217 209 206 204 211 213 207 210 206 177 163 182 190 189 188 173 177 176 167 189 191 181 195 148 150 218 236 197 179 192 182 185 218 228 221 203 197 202 207 218 218 206 229 241 239 251 258 239 168 212 218 206 204 194 193 197 198 203 203 203 207 209 209
233 230 193 173 197 188 176 185 179 175 203 200 200 197 197 219 218 215 213 205 205 200 193 211 221 214 205 210 210 219 222 213 212 203 182 183 192 190 194 182 150 154 168 171 173 176 188 197 111 134 210 231 192 180 197 187 166 247 248 229 192 184 201 208 217 212 204 222 233 234 249 253 237 133 151 181 180 183 183 183 185 192 200 201 202 205 207 209
245 248 224 198 199 187 179 176 170 188 206 184 188 195 194 217 226 225 228 224 222 220 214 217 219 207 195 205 213 225 227 221 226 222 199 200 201 184 175 163 152 158 164 160 162 164 167 170 150 167 205 229 188 173 177 142 121 257 253 215 178 189 208 207 217 218 211 213 218 221 236 245 214 146 159 192 197 191 189 188 190 194 197 200 204 201 198 200